Погода в Бангкоке

Таиланд     13°45′32″N   100°31′57″E
темп.,
°C
ветер,
м/с
пор.,
м/с
влажн.,
%
обл.,
%
осадки,
мм/ч
давл.,
гПа
погр.,
м
16 июня, ср
ср1601:00+28ссв1175100 0.0 100768
04:00+27ю1275100 0.0 100686
07:00+28ю1374100 0.0 1008143
10:00+30зюз4559100 0.0 10091039
13:00+30з4560100 0.1 10081037
16:00+31зюз4655100 0.0 10071285
19:00+29зюз3662100 0.3 1008771
22:00+28зюз3666100 0.0 1010540
17 июня, чт
чт1701:00+28юз2766100 0.0 1008531
04:00+27сз1168100 0.0 1008112
07:00+27зсз116898 0.0 1010108
10:00+30зюз3455100 0.0 10111132
13:00+29зюз4558100 0.0 1010924
16:00+29юз3458100 0.0 1008757
19:00+29ююз23615 0.0 1009193
22:00+28зюз126727 0.0 101184
18 июня, пт
пт1801:00+27з23695 0.0 1010158
04:00+26з23706 0.0 1010153
07:00+27з11698 0.0 1011180
10:00+31юз1252100 0.0 1011956
13:00+34ююз2342100 0.0 10091808
16:00+34ю434499 0.0 10061281
19:00+31ю5555100 0.0 1008536
22:00+30ю3467100 1.8 1010236
19 июня, сб
сб1901:00+29юз247465 1.9 1009253
04:00+28з2473100 0.3 1008221
07:00+28з246727 0.3 1010247
10:00+32з334716 0.0 10101043
13:00+36зюз3536100 0.0 10072173
16:00+37ююз453640 0.0 10051936
19:00+32ююз575691 0.0 1006489
22:00+31юз366052 0.1 1008613
20 июня, вс
вс2001:00+29з49596 0.1 1008567
04:00+28з38655 0.0 1007448
07:00+28зюз47665 0.0 1009453
10:00+33з464736 0.0 10091237
13:00+36з563943 0.0 10062242
16:00+32ююз675488 0.2 1004474
19:00+31юз575866 0.3 1005741
22:00+31зюз48568 0.0 1006718